Location: *
(53.9002°N, 27.5624°E)
Time: 08:32:16
(UTC+00:00)

Cosmos 1447 Rocket - Pass Details

Date: 12 November 2019
Orbit: 955 x 995 km, 82.9° (Epoch: 07 December)

Event Time Altitude Azimuth Distance (km) Brightness Sun altitude
Rises 16:10:03 0° 188° (S) 3,650 7.7 -16.6°
Reaches altitude 10° 16:12:32 10° 188° (S) 2,713 7.0 -17.0°
Maximum altitude 16:18:46 90° 106° (ESE) 989 4.5 -17.9°
Drops below altitude 10° 16:25:07 10° 11° (N) 2,759 6.7 -18.8°
Sets 16:27:40 0° 12° (NNE) 3,716 7.4 -19.2°
